This is the latest recevied weather packets stored in our database for station/object KC0MWM-2. If no packets are shown the sender has not sent any weather packets the latest 10 day(s).
| Time | Temp. | Humidity | Pressure | Rain* | Wind** | Luminosity | Snow |
|---|---|---|---|---|---|---|---|
| 1777457196 | 0.56° C | 97% | 1022.2 hPa | 0.25 mm | - | - | - |
| 1777451775 | 1.67° C | 97% | 1022.2 hPa | 0 mm | - | - | - |
| 1777450575 | 1.67° C | 97% | 1022.4 hPa | 0 mm | - | - | - |
| 1777449395 | 2.22° C | 97% | 1022.4 hPa | 0 mm | - | - | - |
| 1777446975 | 1.67° C | 97% | 1022.4 hPa | 0 mm | - | - | - |
| 1777440977 | 2.78° C | 97% | 1022.2 hPa | 0 mm | - | - | - |
| 1777439177 | 2.78° C | 97% | 1022 hPa | 0 mm | - | - | - |
| 1777437996 | 2.78° C | 96% | 1021.7 hPa | 0 mm | - | - | - |
| 1777436776 | 2.78° C | 95% | 1021.7 hPa | 0 mm | - | - | - |
| 1777434376 | 3.89° C | 94% | 1021.8 hPa | 0 mm | - | - | - |
| 1777426575 | 5° C | 91% | 1020.9 hPa | 0 mm | - | - | - |
| 1777424175 | 5° C | 91% | 1020.9 hPa | 0 mm | - | - | - |
| 1777422976 | 5° C | 92% | 1020.9 hPa | 0 mm | - | - | - |
| 1777418776 | 5° C | 94% | 1020.3 hPa | 0 mm | - | - | - |
| 1777416397 | 5° C | 93% | 1020 hPa | 0.25 mm | - | - | - |
| 1777415177 | 5° C | 92% | 1019.7 hPa | 0.25 mm | - | - | - |
| 1777406777 | 6.11° C | 87% | 1020.4 hPa | 0 mm | - | - | - |
| 1777404377 | 6.67° C | 88% | 1020.3 hPa | 0.25 mm | - | - | - |
| 1777401377 | 6.67° C | 91% | 1020.3 hPa | 0 mm | - | - | - |
| 1777397777 | 6.11° C | 98% | 1019.8 hPa | 0 mm | - | - | - |
| 1777395976 | 5.56° C | 98% | 1019.9 hPa | 0 mm | - | - | - |
| 1777393577 | 5° C | 97% | 1020.2 hPa | 0 mm | - | - | - |
| 1777392977 | 5° C | 98% | 1019.9 hPa | 0 mm | - | - | - |
| 1777391776 | 5° C | 97% | 1020.3 hPa | 0 mm | - | - | - |
| 1777388776 | 5° C | 98% | 1020.1 hPa | 0 mm | - | - | - |
* Rain latest hour (hover to see other rain measurements)
** Current wind speed in m/s (hover to see current wind gust speed)